Regional Weather Roundup
Issued by NWS

Home | Current Version | Previous Version | Graphics & Text | Print | Product List | Glossary On
Versions: 1 2 3 4 5 6 7 8 9 10 11 12 13 14 15 16 17 18 19 20 21 22 23 24 25 26 27 28 29 30 31 32 33 34 35 36 37 38 39 40 41 42 43 44 45 46 47 48 49 50
000
ASUS43 KTOP 211259
RWRKS

WEATHER ROUNDUP FOR KANSAS
NATIONAL WEATHER SERVICE GOODLAND KS
800 AM CDT THU SEP 21 2017

NOTE:  "FAIR" INDICATES FEW OR NO CLOUDS BELOW 12,000 FEET WITH NO
SIGNIFICANT WEATHER AND/OR OBSTRUCTIONS TO VISIBILITY.

KSZ001>006-013>018-027>032-041>047-211400-
NORTHWEST KANSAS

CITY           SKY/WX    TMP DP  RH WIND       PRES   REMARKS
GOODLAND       CLEAR     52  42  69 S13       29.78S
HAYS           CLEAR     52  49  89 SE5       29.82R
HILL CITY      CLEAR     48  44  86 CALM      29.81S
RUSSELL        CLEAR     61  58  90 S9        29.80R
$$

KSZ061>065-074>080-084>089-211400-
SOUTHWEST KANSAS

CITY           SKY/WX    TMP DP  RH WIND       PRES   REMARKS
DODGE CITY     CLEAR     58  49  72 S8        29.83S
ELKHART          N/A     58  45  62 SW10        N/A
GARDEN CITY    CLEAR     56  45  66 S7        29.83R
GREAT BEND     CLEAR     56  52  86 CALM      29.83R
LIBERAL        CLEAR     51  47  86 SE5       29.86R
$$

KSZ066>073-081>083-090>101-211400-
SOUTHEAST KANSAS

CITY           SKY/WX    TMP DP  RH WIND       PRES   REMARKS
CHANUTE        CLEAR     74  70  87 SE13      29.91R
COFFEYVILLE    CLEAR     74  71  91 SE8       29.90R
HUTCHINSON     CLEAR     72  71  97 SE10      29.83R
MEDICINE LODGE   N/A     69  66  90 SE6       29.83R
NEWTON         CLEAR     72  70  93 S10       29.86R
WICHITA INTL   PTCLDY    73  72  96 S12       29.84R
WICHITA JABRA  CLEAR     73  72  96 S13       29.85R
WINFIELD       CLEAR     75  72  90 S9        29.87R
$$

KSZ007>012-019>026-033>040-048>060-102>105-211400-
NORTHEAST KANSAS

CITY           SKY/WX    TMP DP  RH WIND       PRES   REMARKS
CONCORDIA      CLEAR     71  70  96 S8        29.81R
EMPORIA        CLEAR     73  70  90 S13       29.87R
LAWRENCE       CLEAR     74  72  93 E5        29.89R
MANHATTAN      CLEAR     76  72  87 S7        29.83R
OLATHE IND     MOCLDY    76  71  85 S10       29.92R
OLATHE EXE     PTCLDY    74  71  91 S8        29.92R
SALINA         CLEAR     76  71  85 S12       29.81R
TOPEKA BILLARD CLEAR     75  73  93 E5        29.87R
TOPEKA FORBES  CLEAR     77  72  84 S9        29.87R
$$



USA.gov is the U.S. government's official web portal to all federal, state and local government web resources and services.